Location: ?????
(31.8092°N, 35.2590°E)
Time: 19:16:57
(UTC+00:00)

Cosmos 1400 Rocket - Pass Details

Date: 20 June 2021
Orbit: 521 x 567 km, 81.2° (Epoch: 23 July)

Event Time Altitude Azimuth Distance (km) Brightness Sun altitude
Rises 17:31:01 0° 347° (NNW) 2,649 7.1 -8.7°
Reaches altitude 10° 17:33:11 10° 343° (NNW) 1,758 6.2 -9.1°
Maximum altitude 17:36:57 56° 265° (W) 622 3.4 -9.7°
Drops below altitude 10° 17:40:44 10° 186° (S) 1,756 5.1 -10.4°
Enters shadow 17:42:50 - 182° (S) 2,619 5.9 -10.7°
